When you browse on this site, cookies collect data to enhance your experience and personalize the content and advertising you see.
Visit our Privacy Policy to learn more. By continuing to use the site, you agree to this use of cookies and data.
  • In Österreich
  • Länderverzeichnis
  • Für 7 Tage
  • Wassertemperatur
  • Satellitenkarten
  • Wetterkarte
  • News
  • Widgets
  • user-avatar
    Anmelden

    Stündliche Wetter Nachiczewan

    Heute, 25 März, Montag

    Zeit Temperatur Niederschläge Wind Luftdruck Luftfeuchtigkeit
    00:00 +8°C° 0.3 mm 4 m/S 680 mmHg 61%
    01:00 +7°C° 0.4 mm 4 m/S 680 mmHg 62%
    02:00 +8°C° 0.4 mm 3 m/S 680 mmHg 62%
    03:00 +8°C° 0 mm 2 m/S 679 mmHg 62%
    04:00 +8°C° 0 mm 2 m/S 680 mmHg 61%
    05:00 +8°C° 0 mm 2 m/S 680 mmHg 60%
    06:00 +8°C° 0 mm 2 m/S 680 mmHg 60%
    07:00 +8°C° 0.1 mm 2 m/S 680 mmHg 57%
    08:00 +9°C° 0.1 mm 2 m/S 680 mmHg 55%
    09:00 +9°C° 0 mm 2 m/S 680 mmHg 53%
    10:00 +10°C° 0.5 mm 1 m/S 680 mmHg 54%
    11:00 +10°C° 0.5 mm 1 m/S 680 mmHg 55%
    12:00 +10°C° 0.5 mm 1 m/S 680 mmHg 56%
    13:00 +10°C° 0.2 mm 1 m/S 680 mmHg 55%
    14:00 +11°C° 0.2 mm 1 m/S 680 mmHg 54%
    15:00 +11°C° 0.2 mm 1 m/S 680 mmHg 53%
    16:00 +11°C° 0.1 mm 1 m/S 681 mmHg 53%
    17:00 +11°C° 0.1 mm 1 m/S 681 mmHg 53%
    18:00 +11°C° 0.1 mm 1 m/S 681 mmHg 54%
    19:00 +10°C° 0.2 mm 1 m/S 682 mmHg 55%
    20:00 +10°C° 0.2 mm 1 m/S 682 mmHg 56%
    21:00 +10°C° 0.2 mm 1 m/S 683 mmHg 58%
    22:00 +9°C° 0.1 mm 1 m/S 683 mmHg 58%
    23:00 +9°C° 0.1 mm 1 m/S 683 mmHg 59%

    Morgen, 26 März, Dienstag

    Zeit Temperatur Niederschläge Wind Luftdruck Luftfeuchtigkeit
    00:00 +9°C° 0.1 mm 1 m/S 683 mmHg 60%
    01:00 +8°C° 0 mm 1 m/S 683 mmHg 60%
    02:00 +8°C° 0 mm 1 m/S 683 mmHg 61%
    03:00 +7°C° 0 mm 0 m/S 683 mmHg 62%
    04:00 +7°C° 0 mm 0 m/S 683 mmHg 63%
    05:00 +8°C° 0 mm 1 m/S 683 mmHg 64%
    06:00 +7°C° 0 mm 1 m/S 683 mmHg 65%
    07:00 +7°C° 0 mm 0 m/S 684 mmHg 61%
    08:00 +8°C° 0 mm 0 m/S 684 mmHg 57%
    09:00 +9°C° 0 mm 0 m/S 684 mmHg 54%
    10:00 +10°C° 0 mm 0 m/S 684 mmHg 48%
    11:00 +11°C° 0 mm 0 m/S 684 mmHg 43%
    12:00 +13°C° 0 mm 0 m/S 684 mmHg 38%
    13:00 +14°C° 0 mm 1 m/S 683 mmHg 35%
    14:00 +15°C° 0 mm 1 m/S 683 mmHg 33%
    15:00 +16°C° 0 mm 2 m/S 683 mmHg 30%
    16:00 +15°C° 0 mm 2 m/S 683 mmHg 31%
    17:00 +15°C° 0 mm 2 m/S 683 mmHg 33%
    18:00 +15°C° 0 mm 2 m/S 683 mmHg 34%
    19:00 +14°C° 0 mm 2 m/S 683 mmHg 37%
    20:00 +13°C° 0 mm 2 m/S 684 mmHg 41%
    21:00 +13°C° 0 mm 2 m/S 684 mmHg 45%
    22:00 +12°C° 0 mm 1 m/S 684 mmHg 46%
    23:00 +12°C° 0 mm 1 m/S 684 mmHg 48%

    übermorgen, 27 März, Mittwoch

    Zeit Temperatur Niederschläge Wind Luftdruck Luftfeuchtigkeit
    00:00 +11°C° 0 mm 1 m/S 684 mmHg 50%
    01:00 +11°C° 0 mm 1 m/S 684 mmHg 52%
    02:00 +10°C° 0 mm 1 m/S 684 mmHg 54%
    03:00 +9°C° 0 mm 1 m/S 684 mmHg 57%
    04:00 +9°C° 0 mm 1 m/S 684 mmHg 57%
    05:00 +9°C° 0 mm 1 m/S 684 mmHg 57%
    06:00 +9°C° 0 mm 1 m/S 684 mmHg 57%
    07:00 +9°C° 0 mm 1 m/S 684 mmHg 54%
    08:00 +10°C° 0 mm 1 m/S 684 mmHg 52%
    09:00 +11°C° 0 mm 1 m/S 684 mmHg 49%
    10:00 +12°C° 0 mm 1 m/S 684 mmHg 46%
    11:00 +13°C° 0 mm 1 m/S 684 mmHg 42%
    12:00 +14°C° 0 mm 1 m/S 684 mmHg 39%
    13:00 +15°C° 0 mm 1 m/S 684 mmHg 38%
    14:00 +15°C° 0 mm 1 m/S 684 mmHg 37%
    15:00 +16°C° 0 mm 1 m/S 684 mmHg 35%
    16:00 +16°C° 0 mm 1 m/S 684 mmHg 36%
    17:00 +15°C° 0 mm 2 m/S 684 mmHg 37%
    18:00 +15°C° 0 mm 2 m/S 684 mmHg 37%
    19:00 +14°C° 0 mm 2 m/S 685 mmHg 39%
    20:00 +14°C° 0 mm 2 m/S 685 mmHg 42%
    21:00 +13°C° 0 mm 1 m/S 686 mmHg 44%
    22:00 +13°C° 0 mm 1 m/S 686 mmHg 45%
    23:00 +12°C° 0 mm 1 m/S 686 mmHg 47%

    28 März, Donnerstag

    Zeit Temperatur Niederschläge Wind Luftdruck Luftfeuchtigkeit
    00:00 +12°C° 0 mm 1 m/S 686 mmHg 49%
    01:00 +11°C° 0 mm 1 m/S 686 mmHg 50%
    02:00 +11°C° 0 mm 1 m/S 686 mmHg 51%
    03:00 +10°C° 0 mm 1 m/S 686 mmHg 51%
    04:00 +10°C° 0 mm 1 m/S 686 mmHg 52%
    05:00 +10°C° 0 mm 1 m/S 686 mmHg 53%
    06:00 +10°C° 0 mm 1 m/S 686 mmHg 54%
    07:00 +10°C° 0 mm 1 m/S 686 mmHg 52%
    08:00 +11°C° 0 mm 1 m/S 686 mmHg 50%
    09:00 +11°C° 0 mm 0 m/S 687 mmHg 48%
    10:00 +12°C° 0.1 mm 1 m/S 687 mmHg 47%
    11:00 +13°C° 0.1 mm 1 m/S 686 mmHg 47%
    12:00 +14°C° 0.1 mm 2 m/S 686 mmHg 47%
    13:00 +14°C° 0.4 mm 2 m/S 686 mmHg 48%
    14:00 +14°C° 0.4 mm 2 m/S 686 mmHg 48%
    15:00 +14°C° 0.4 mm 2 m/S 685 mmHg 49%
    16:00 +14°C° 0.3 mm 2 m/S 685 mmHg 50%
    17:00 +14°C° 0.3 mm 2 m/S 685 mmHg 51%
    18:00 +13°C° 0.3 mm 2 m/S 685 mmHg 51%
    19:00 +13°C° 0.2 mm 2 m/S 686 mmHg 54%
    20:00 +12°C° 0.2 mm 1 m/S 686 mmHg 56%
    21:00 +12°C° 0.2 mm 1 m/S 686 mmHg 58%
    22:00 +11°C° 0.2 mm 1 m/S 686 mmHg 60%
    23:00 +11°C° 0.2 mm 1 m/S 686 mmHg 61%

    29 März, Freitag

    Zeit Temperatur Niederschläge Wind Luftdruck Luftfeuchtigkeit
    00:00 +11°C° 0.2 mm 1 m/S 686 mmHg 62%
    01:00 +10°C° 0.1 mm 1 m/S 686 mmHg 63%
    02:00 +10°C° 0.1 mm 1 m/S 686 mmHg 64%
    03:00 +10°C° 0.1 mm 1 m/S 686 mmHg 65%
    04:00 +9°C° 0 mm 1 m/S 686 mmHg 66%
    05:00 +9°C° 0 mm 1 m/S 686 mmHg 67%
    06:00 +8°C° 0 mm 1 m/S 686 mmHg 68%
    07:00 +10°C° 0 mm 1 m/S 685 mmHg 63%
    08:00 +10°C° 0 mm 2 m/S 685 mmHg 58%
    09:00 +12°C° 0 mm 2 m/S 685 mmHg 53%
    10:00 +12°C° 0 mm 3 m/S 685 mmHg 48%
    11:00 +14°C° 0 mm 4 m/S 684 mmHg 43%
    12:00 +15°C° 0 mm 5 m/S 684 mmHg 38%
    13:00 +15°C° 0 mm 5 m/S 684 mmHg 36%
    14:00 +16°C° 0 mm 6 m/S 683 mmHg 34%
    15:00 +17°C° 0 mm 6 m/S 683 mmHg 32%
    16:00 +16°C° 0 mm 5 m/S 683 mmHg 34%
    17:00 +16°C° 0 mm 5 m/S 683 mmHg 36%
    18:00 +15°C° 0 mm 4 m/S 683 mmHg 38%
    19:00 +16°C° 0.1 mm 3 m/S 683 mmHg 41%
    20:00 +15°C° 0.1 mm 2 m/S 684 mmHg 44%
    21:00 +14°C° 0.1 mm 1 m/S 684 mmHg 47%
    22:00 +14°C° 0.1 mm 1 m/S 684 mmHg 50%
    23:00 +13°C° 0.1 mm 1 m/S 684 mmHg 53%

    30 März, Samstag

    Zeit Temperatur Niederschläge Wind Luftdruck Luftfeuchtigkeit
    00:00 +13°C° 0.1 mm 1 m/S 683 mmHg 56%
    01:00 +12°C° 0.1 mm 1 m/S 683 mmHg 59%
    02:00 +11°C° 0.1 mm 1 m/S 683 mmHg 63%
    03:00 +10°C° 0.1 mm 2 m/S 683 mmHg 66%
    04:00 +10°C° 0.1 mm 1 m/S 683 mmHg 67%
    05:00 +10°C° 0.1 mm 1 m/S 683 mmHg 69%
    06:00 +10°C° 0.1 mm 1 m/S 683 mmHg 71%
    07:00 +10°C° 0 mm 2 m/S 684 mmHg 66%
    08:00 +12°C° 0 mm 2 m/S 684 mmHg 61%
    09:00 +12°C° 0 mm 3 m/S 684 mmHg 56%
    10:00 +13°C° 0 mm 5 m/S 684 mmHg 50%
    11:00 +15°C° 0 mm 6 m/S 684 mmHg 44%
    12:00 +16°C° 0 mm 8 m/S 684 mmHg 39%
    13:00 +17°C° 0 mm 9 m/S 683 mmHg 36%
    14:00 +17°C° 0 mm 9 m/S 683 mmHg 34%
    15:00 +18°C° 0 mm 9 m/S 683 mmHg 31%
    16:00 +18°C° 0 mm 8 m/S 683 mmHg 33%
    17:00 +17°C° 0 mm 7 m/S 683 mmHg 34%
    18:00 +17°C° 0 mm 7 m/S 684 mmHg 35%
    19:00 +16°C° 0.2 mm 6 m/S 684 mmHg 40%
    20:00 +15°C° 0.2 mm 6 m/S 684 mmHg 44%
    21:00 +14°C° 0.2 mm 5 m/S 685 mmHg 48%
    22:00 +13°C° 0.1 mm 5 m/S 684 mmHg 49%
    23:00 +13°C° 0.1 mm 4 m/S 684 mmHg 49%
    Mehr zeigen